Location: Luxembourg
(49.6117°N, 6.1300°E)
Time: 23:17:29
(UTC+02:00)

OTV 5 (USA 277) - Pass Details

Date: 25 January 2019
Orbit: 310 x 324 km, 54.5° (Epoch: 17 October)

Event Time Altitude Azimuth Distance (km) Brightness Sun altitude
Rises 07:27:48 0° 211° (SSW) 2,065 ? -8.1°
Reaches altitude 10° 07:29:57 10° 197° (SSW) 1,236 ? -7.8°
Maximum altitude 07:32:15 24° 140° (SE) 726 ? -7.5°
Drops below altitude 10° 07:34:34 10° 83° (E) 1,241 ? -7.1°
Sets 07:36:44 0° 68° (ENE) 2,075 ? -6.8°
